ATLAS 5 CENTAUR DEB, 43973

Orbit data source: Space-Track

ATLAS 5 CENTAUR DEB, 43973 is space debris in HEO originally from a launch on Wed, 17 Sep 2014 UTC launched from the Air Force Eastern Test Range (AFETR). Debris objects in space refer to the collection of defunct objects orbiting the Earth. Examples of debris include non-operational satellites, rocket bodies, and fragments generated from explosions, collisions, or faulty payload assembly.

Loading next visibility...
Identifier
43973, 2014-055AC
Orbit
HEO
Country
Flag of USUS
Related business
Flag of USUnited Launch Alliance/Lockheed Martin (US)
Manufacturer
Unknown
Mission
Spacecraft
Bus & Motor
Unknown
Mass
Unknown
Launch date (UTC)
2014-09-17 (12 years ago)
Launch vehicle
Unknown
Launch site
Air Force Eastern Test Range (AFETR)
Object type
Payload
Rocket body
Debris
Shape & HBR
Unknown shape, 1.1 m
Radar Cross Section
Small (<0.1 m²)

Expand to show TLE details & history
Last TLE update: 5 days ago

TLE from 5 days ago
0 ATLAS 5 CENTAUR DEB
1 43973U 14055AC  26128.88009614 -.00000032  00000-0  00000-0 0  9992
2 43973  21.0241 112.1947 5017174 228.6732  75.8320  1.92512964 54102
Epoch: 2026-05-08T21:07Z
TLE epoch observation values (Epoch: 2026-05-08T21:07:20.306Z)
Latitude
-0.00006°
Longitude
-71.40226°
Altitude
24,142.965 km
Speed
3.394 km/s
True Right ascension
07h 28m 33s
True Declination
0° 00' 00"
Sunlit
Object was in daylight at epoch
Visualization orbit readout
Latitude
Unknown
Longitude
Unknown
Altitude
Unknown
Speed
Unknown
Apparent Right ascension
Unknown
Apparent Declination
Unknown
Sunlit
N/A
Visualization observer readout
Local Sidereal Time
07:42:46
Azimuth
Unknown
Elevation
Unknown
Doppler factor
Unknown
Orbital elements
Apogee altitude
34,615.426 km
Perigee altitude
7,223.876 km
Semi-major axis
27,297.788 km
Eccentricity
0.50172
Inclination
21.0241°
RAAN
112.1947°
Arg. of periapsis
228.6732°
True anomaly
131.35051°
Mean anomaly
75.832°
Eccentric anomaly
103.754°
Mean motion
0.48123 °/min
Orbital period
748.08 mins
BSTAR
0
Loading maneuver chart data...
Computing Atmospheric mass density...

Documentation

Showing up to 5 results
|